Regional Weather Roundup
Issued by NWS

Home | Current Version | Previous Version | Text Only | Print | Product List | Glossary Off
Versions: 1 2 3 4 5 6 7 8 9 10 11 12 13 14 15 16 17 18 19 20 21 22 23 24 25 26 27 28 29 30 31 32 33 34 35 36 37 38 39 40 41 42 43 44 45 46 47 48 49 50

000
ASUS45 KBOI 201810
RWRID
WEATHER ROUNDUP FOR IDAHO
NATIONAL WEATHER SERVICE BOISE ID
1200 PM MDT SAT SEP 20 2014

NOTE: "FAIR" INDICATES FEW OR NO CLOUDS BELOW 12000 FEET
WITH NO SIGNIFICANT WEATHER AND/OR OBSTRUCTIONS TO VISIBILITY

IDZ012-014-201900-
SOUTHWEST IDAHO


CITY           SKY/WX    TMP DP  RH WIND       PRES   REMARKS
BOISE          SUNNY     76  44  32 SE9       30.15S
CALDWELL       SUNNY     72  45  37 E3        30.16S
MOUNTAIN HOME  SUNNY     72  45  37 E8        30.16F
$$

IDZ016-017-201900-
SOUTHCENTRAL IDAHO


CITY           SKY/WX    TMP DP  RH WIND       PRES   REMARKS
BURLEY         SUNNY     72  47  40 CALM      30.21F
JEROME         SUNNY     71  45  39 E6        30.22F
TWIN FALLS     SUNNY     74  46  36 VRB5      30.21F
$$

IDZ019>023-201900-
SOUTHEAST IDAHO


CITY           SKY/WX    TMP DP  RH WIND       PRES   REMARKS
IDAHO FALLS    SUNNY     72  43  35 N6        30.26S
POCATELLO      SUNNY     70  47  43 VRB6      30.25F
REXBURG        SUNNY     69  45  41 CALM      30.27F
$$

IDZ006-010-011-018-031-032-201900-
CENTRAL IDAHO MOUNTAINS


CITY           SKY/WX    TMP DP  RH WIND       PRES   REMARKS
MCCALL         SUNNY     66  43  43 S3        30.22S
HAILEY         SUNNY     70  46  43 CALM      30.30S
STANLEY          N/A     62  39  42 N7        30.33F
SALMON         SUNNY     64  43  45 CALM      30.24F
CHALLIS        SUNNY     65  42  43 CALM      30.28F
$$

IDZ002-004-006-007-026-201900-
NORTHERN IDAHO


CITY           SKY/WX    TMP DP  RH WIND       PRES   REMARKS
LEWISTON       SUNNY     70  49  47 VRB3      30.14F
LOWELL           N/A     69  49  48 CALM      30.17F
COEUR D`ALENE  SUNNY     70  52  52 NE7       30.20S
MULLAN PASS    SUNNY     57  44  62 VRB6      30.33S
$$



USA.gov is the U.S. government's official web portal to all federal, state and local government web resources and services.